Theta_e
309 309 309 309 309 309 310 310 310 310 311 311 311 311 312 312 312 320 326 320 322 318 315 316 317 320 321 316 316 318 312 314 318 321 326 326 325 325 326 326 333 338 341 342 343
308 309 309 309 309 309 310 310 310 311 311 312 312 313 314 313 314 322 322 323 315 314 314 316 317 317 314 315 315 314 312 315 318 320 319 322 323 325 326 325 330 344 346 346 346
308 308 308 309 309 309 310 310 311 311 312 312 313 315 315 313 325 322 319 316 314 313 314 320 321 317 316 315 315 316 314 316 318 321 319 321 322 322 324 323 325 331 346 345 344
308 308 308 308 309 309 310 310 311 312 312 312 315 316 315 318 325 319 316 315 315 316 317 320 318 316 317 316 318 320 318 318 321 320 319 318 320 323 324 324 326 327 330 343 343
307 307 308 308 309 309 310 311 312 312 312 314 316 316 315 327 324 317 317 317 316 316 317 317 316 316 318 318 319 320 318 320 319 318 319 320 319 322 322 323 324 325 326 327 339
307 307 308 308 309 309 310 311 312 313 313 315 316 315 324 327 322 320 321 320 321 320 319 318 318 319 319 319 319 319 319 319 319 318 320 320 319 322 321 324 325 326 327 326 326
307 307 307 308 309 310 311 312 313 313 314 316 316 315 324 325 323 322 321 321 321 322 321 322 321 318 318 318 320 320 319 317 318 319 322 324 322 322 322 326 325 326 325 327 327
306 307 307 308 309 310 311 313 314 314 314 316 315 319 327 324 320 321 321 322 322 322 322 322 321 318 319 318 319 318 317 316 319 323 324 323 320 323 327 328 327 326 335 341 337
306 307 307 308 309 310 312 315 317 316 313 315 322 322 329 320 320 323 322 323 323 322 321 322 320 317 318 318 318 319 318 319 323 324 324 321 322 332 331 335 337 345 347 349 343
306 306 307 308 310 311 315 318 320 318 321 322 323 326 327 326 324 323 322 322 322 320 320 320 319 318 317 318 319 320 322 321 323 324 321 330 335 333 335 336 337 344 333 338 341
306 307 307 308 310 312 317 319 318 322 320 324 324 328 326 324 322 323 322 322 321 321 320 321 320 320 322 322 321 322 322 323 325 323 324 335 336 334 336 337 337 345 333 334 338
306 307 307 309 311 315 318 317 318 317 317 320 322 321 322 323 324 323 321 321 322 322 322 321 321 322 323 324 324 324 324 323 323 324 334 336 336 336 336 336 337 340 341 341 339
307 307 308 309 314 319 318 317 317 319 319 325 320 319 321 322 324 323 320 321 322 321 320 322 322 324 324 323 325 325 325 323 323 322 331 333 335 337 338 338 337 341 345 344 345
308 308 308 309 318 316 319 316 316 319 325 326 319 321 322 321 323 323 323 323 323 322 322 323 323 323 324 327 323 325 323 323 324 323 321 331 336 339 339 340 339 335 342 343 342
309 308 308 309 315 317 319 317 316 321 340 321 320 321 320 320 323 322 322 323 322 324 323 323 324 325 325 324 324 323 324 324 325 325 327 336 337 339 337 341 338 335 338 340 339
309 309 308 310 310 316 316 316 318 328 337 325 322 321 319 321 323 323 322 322 323 323 322 321 323 323 324 324 323 325 325 323 325 327 333 337 336 335 337 338 337 336 336 338 337
310 310 309 307 313 315 316 318 327 332 327 324 321 320 320 322 323 322 323 322 323 323 327 325 322 324 326 325 324 325 325 327 331 340 337 333 337 338 338 335 337 335 333 334 336
311 311 311 313 315 315 317 323 332 332 328 325 322 321 323 323 323 323 325 325 326 326 328 332 325 327 326 325 325 327 329 329 330 336 335 335 342 341 339 336 334 332 330 327 327
310 311 315 317 319 317 319 329 331 329 327 325 324 324 324 325 325 325 328 328 326 325 329 331 332 328 327 326 324 329 327 327 328 330 331 336 337 335 335 336 332 331 329 328 326
309 312 316 318 318 319 323 328 328 327 326 326 326 326 325 324 325 326 330 328 328 326 324 330 334 329 328 327 325 328 324 329 329 331 332 336 339 339 341 337 330 328 327 326 325
311 320 320 319 318 321 325 325 326 324 326 328 329 330 328 325 325 330 330 327 326 325 328 329 332 333 329 328 327 324 328 328 328 331 331 332 340 336 333 331 330 328 326 325 325
314 324 322 317 320 321 323 325 319 324 325 327 328 329 329 328 330 331 329 328 326 327 331 329 328 331 330 328 327 328 328 326 324 327 328 330 332 331 329 329 329 327 326 326 325
320 320 320 318 323 324 325 324 323 324 324 325 326 327 328 331 332 332 329 325 324 323 323 325 329 330 328 328 326 327 326 325 326 326 328 331 332 331 330 329 329 329 326 325 324
317 325 323 321 319 322 327 326 323 324 325 326 328 326 326 326 326 328 327 325 323 322 323 331 328 329 331 329 327 326 325 324 325 326 327 328 331 333 331 330 329 329 328 327 324
317 324 328 324 321 321 324 328 323 325 324 325 326 326 326 327 328 327 327 324 325 325 328 329 334 328 327 327 326 326 326 325 325 325 325 326 331 331 329 327 325 325 326 324 322
318 324 323 327 328 324 323 325 327 325 323 324 327 327 327 331 333 335 332 333 333 329 331 330 331 332 330 328 326 327 328 328 327 326 326 328 329 326 325 324 324 322 321 320 319
316 318 323 326 325 327 323 325 327 326 324 326 325 327 329 328 326 326 326 326 326 327 329 329 331 332 331 331 328 331 328 328 326 325 324 330 327 323 323 322 322 319 317 316 316
Wind_Speed
15 16 18 20 21 23 24 27 28 27 25 23 23 23 23 24 26 9 5 4 5 6 8 12 16 25 22 6 7 3 3 7 10 9 6 8 7 7 7 5 8 7 7 12 27
16 17 19 20 22 25 25 28 29 27 23 23 23 23 21 21 20 10 9 9 7 6 7 12 11 12 5 7 5 4 2 9 8 6 7 9 9 7 7 9 6 8 10 21 29
17 19 20 22 24 26 27 29 29 24 24 23 22 20 18 16 5 2 5 5 2 4 9 17 24 8 6 5 8 7 7 10 8 7 8 6 9 7 6 9 6 3 15 15 13
19 19 21 23 25 27 29 30 27 24 25 20 18 17 14 3 4 3 3 3 3 4 10 12 9 6 4 6 7 2 9 8 5 7 7 8 8 8 6 8 9 9 6 12 12
18 21 23 24 25 28 29 29 24 24 23 16 15 13 6 2 7 6 4 3 4 8 12 8 9 6 6 7 6 4 9 7 9 9 6 6 9 5 9 11 8 7 6 3 10
21 23 25 26 26 29 30 28 24 26 16 11 12 11 2 4 9 4 4 4 8 14 16 17 6 9 6 8 5 7 7 8 10 11 5 5 8 2 12 7 8 5 4 2 6
22 23 25 27 27 29 31 26 24 22 11 9 10 7 5 10 2 5 3 12 16 14 6 14 13 7 9 9 7 8 7 9 10 9 5 2 7 9 9 2 6 8 7 2 6
24 25 27 29 29 30 29 26 24 16 9 9 9 1 6 5 5 7 10 15 9 8 13 12 10 7 5 9 10 9 6 5 9 6 5 5 9 7 4 5 6 12 22 27 26
24 26 28 29 30 32 28 26 22 10 8 7 5 3 7 5 5 10 8 11 13 9 9 12 4 6 8 6 7 5 9 9 4 5 3 6 7 17 16 16 16 25 27 25 28
25 27 28 29 29 29 27 27 8 5 3 3 8 5 8 4 4 5 5 7 5 8 5 6 3 3 5 2 5 8 5 6 8 3 8 17 11 16 14 24 16 17 21 20 20
25 27 28 29 29 22 27 8 6 3 2 7 5 5 5 7 1 7 4 8 9 5 7 7 2 5 2 4 6 7 6 6 6 5 11 10 11 19 22 27 19 8 13 10 9
25 27 28 28 26 17 12 6 3 5 8 12 16 12 5 3 3 4 3 4 5 7 8 5 5 2 6 5 6 8 6 7 6 6 11 5 8 11 18 5 17 20 12 10 5
23 26 27 28 17 8 17 12 13 11 3 8 8 8 6 6 6 7 7 5 7 9 11 2 4 2 5 8 6 8 5 5 4 8 7 6 4 3 13 13 22 2 14 15 13
23 24 25 31 5 22 7 16 14 8 2 4 3 4 7 6 4 1 0 3 4 6 8 3 4 4 8 5 8 4 6 7 8 4 6 6 2 6 6 8 20 8 13 15 15
22 23 23 14 15 10 13 22 15 2 2 9 6 5 7 5 6 3 6 5 9 11 3 7 3 3 6 5 5 6 7 5 9 8 6 6 6 5 6 2 3 9 16 16 16
21 20 24 11 17 10 22 20 12 2 3 4 5 6 6 9 3 4 4 5 5 5 7 8 4 1 3 8 8 9 5 8 4 3 3 5 6 5 3 5 10 12 13 15 16
22 20 22 18 5 14 19 11 2 1 7 5 4 9 9 7 4 6 7 6 3 1 5 8 7 5 5 4 10 8 7 5 6 6 3 5 5 8 12 12 13 14 10 13 13
23 22 20 20 14 10 16 2 1 9 5 6 7 11 9 8 6 10 4 2 11 9 5 6 4 2 6 4 4 6 6 4 2 2 5 5 4 3 10 8 10 12 9 9 10
23 16 13 11 6 6 2 1 3 6 5 1 4 5 5 3 4 3 10 8 5 8 5 7 5 2 5 0 3 7 6 3 3 4 4 3 4 4 6 21 10 9 10 8 9
19 11 10 7 8 1 1 5 3 6 9 6 3 3 6 7 4 5 6 7 6 9 7 6 4 3 3 2 4 5 2 8 5 4 5 3 3 4 4 6 7 8 9 9 8
8 3 6 6 5 1 2 5 6 7 8 7 6 6 7 8 5 2 7 8 9 8 8 7 5 9 6 6 6 6 6 6 3 5 2 4 2 3 7 7 8 8 7 7 7
5 3 6 6 1 3 3 4 5 4 1 3 4 5 6 9 9 7 7 5 7 10 4 5 1 4 8 4 10 7 6 6 5 4 1 3 3 7 9 8 7 6 7 6 6
3 3 5 5 2 3 7 5 4 5 2 2 4 7 8 6 5 9 6 6 13 6 3 5 4 4 10 5 10 6 6 5 3 3 1 2 2 7 12 9 6 6 8 8 9
3 3 0 1 3 3 4 4 2 5 6 5 6 5 5 6 5 3 8 4 9 5 1 3 3 1 3 7 4 6 9 6 2 3 2 2 6 7 8 10 7 9 13 14 13
3 4 1 3 4 6 5 5 5 2 5 4 5 6 1 2 0 3 10 7 7 6 1 4 2 7 9 10 8 9 7 5 5 5 5 5 7 4 6 7 7 9 11 13 13
2 3 5 5 4 6 3 4 5 6 3 0 3 7 8 9 7 7 7 7 4 6 4 2 2 6 6 11 6 9 14 13 13 11 9 8 8 7 11 13 13 11 12 11 10
5 11 2 6 2 2 3 4 7 1 3 5 6 4 13 8 8 6 6 5 4 3 5 5 3 4 4 9 8 6 8 8 10 12 7 7 4 12 13 12 7 8 9 9 8
Wind_Direction
348 346 345 340 339 339 338 334 337 333 329 328 327 322 324 323 324 307 257 265 208 282 272 276 274 257 247 260 255 257 6 275 275 324 314 14 29 12 356 345 38 174 151 155 172
345 343 341 338 339 338 336 333 337 331 330 329 328 319 324 326 325 262 258 267 256 261 274 282 287 259 240 232 254 144 169 255 258 330 341 354 16 357 12 335 37 97 131 160 161
342 343 336 338 339 336 333 335 335 330 329 329 327 320 325 331 314 209 212 223 196 231 246 289 282 280 274 266 243 224 220 267 291 335 350 343 350 316 23 339 307 132 157 161 166
343 336 338 338 338 334 331 336 333 329 327 330 325 325 324 335 19 166 132 124 193 238 270 283 281 283 267 259 236 125 293 274 283 328 347 328 313 321 349 269 274 290 164 168 173
334 341 339 337 337 332 330 333 329 327 326 332 328 331 334 249 251 156 154 146 209 230 246 250 283 292 311 312 345 186 258 310 332 313 241 256 283 264 291 283 305 324 355 192 186
343 342 339 336 334 331 331 331 324 327 323 329 327 332 299 270 148 110 166 215 251 227 260 259 278 315 292 322 319 272 301 305 290 282 273 226 259 185 264 254 337 352 288 273 3
343 339 336 332 333 331 330 324 322 326 314 318 319 343 272 244 289 147 177 241 269 256 304 334 356 0 323 315 282 302 312 296 276 249 243 73 313 272 261 46 4 4 6 55 49
337 338 336 335 333 331 327 318 320 317 302 304 310 330 254 209 210 225 241 248 237 263 279 301 335 326 276 278 308 300 290 281 268 199 212 119 292 220 150 74 15 20 33 42 39
336 336 336 335 333 330 322 319 312 304 296 292 316 200 277 193 215 224 260 270 224 230 251 269 305 237 305 288 315 299 256 232 231 111 48 51 346 4 27 62 56 60 51 40 17
337 336 337 334 332 330 324 326 315 292 312 280 266 304 280 238 118 323 272 292 286 274 258 230 248 241 306 80 264 320 350 10 121 132 67 55 24 3 29 43 13 66 60 45 20
336 337 338 333 331 330 336 357 358 23 301 241 279 237 312 87 197 238 180 229 254 257 260 240 182 262 238 358 323 308 311 359 328 97 72 100 60 44 21 28 9 43 86 85 185
336 337 336 332 330 328 342 24 6 249 309 271 260 262 296 336 267 213 157 249 226 260 246 299 235 20 328 281 283 296 314 12 338 20 88 108 50 87 64 34 291 293 109 121 198
335 334 339 334 322 351 337 8 354 8 266 288 214 225 188 198 266 170 167 259 273 287 288 224 152 170 275 292 272 329 48 28 295 314 99 112 0 14 85 19 312 88 95 96 80
334 336 340 338 320 331 24 349 353 355 324 202 200 246 158 211 266 57 226 297 298 282 330 130 119 335 296 349 45 5 25 347 322 333 271 163 248 39 103 210 267 56 87 75 66
331 333 333 342 321 314 327 333 334 312 34 156 164 129 175 213 145 152 240 303 264 288 50 282 80 312 348 15 10 269 325 299 280 286 46 21 60 299 239 253 286 51 76 78 68
324 329 326 346 312 300 330 322 303 32 251 161 127 183 169 226 214 132 222 226 268 301 286 250 109 308 324 299 272 262 298 291 291 28 70 236 115 309 289 256 75 56 50 73 69
319 319 313 302 261 316 333 312 60 183 165 160 169 166 200 192 146 188 204 216 233 255 315 274 198 166 227 318 4 20 33 347 14 28 302 16 63 21 22 284 78 72 46 62 72
319 318 308 283 279 305 314 336 273 280 125 193 181 185 196 172 192 217 248 186 29 27 318 347 103 151 14 31 357 339 110 122 339 166 238 37 132 156 162 247 79 76 78 67 68
322 318 274 275 284 297 353 352 294 334 66 350 281 186 128 79 325 169 83 63 58 26 26 20 342 18 103 33 53 324 18 267 148 302 53 140 66 90 288 16 33 69 60 58 67
332 321 279 245 166 242 356 259 282 18 345 357 299 228 163 181 241 206 79 33 5 37 22 345 335 358 319 203 225 53 334 30 4 17 342 53 29 171 156 180 16 34 56 46 59
331 283 154 152 101 19 235 259 323 60 12 10 348 318 325 157 219 61 58 29 14 7 22 35 62 307 359 7 59 2 30 33 88 77 28 360 338 146 106 69 46 41 45 54 43
276 279 150 156 81 232 224 257 310 89 303 306 295 322 24 33 40 76 72 79 349 32 25 333 50 312 275 306 40 10 93 97 109 320 178 182 286 104 108 89 61 38 33 16 82
258 254 148 200 224 261 293 298 337 335 203 307 316 8 15 41 66 105 105 40 64 54 30 322 352 350 338 21 7 19 5 34 100 86 277 108 336 39 44 36 14 8 43 22 17
291 288 102 168 260 281 308 264 211 331 323 20 2 30 17 33 49 1 116 87 85 95 317 44 358 124 214 257 297 342 327 317 102 120 208 104 104 53 34 66 36 28 27 40 41
239 254 301 203 241 232 281 302 202 165 347 329 17 324 314 6 308 236 125 124 119 144 114 84 346 9 329 321 300 271 284 5 16 67 85 357 76 62 53 42 42 58 49 41 31
296 6 332 295 301 196 248 300 304 154 206 111 290 268 80 68 69 52 62 40 42 39 62 47 309 359 311 283 336 21 48 52 46 39 26 49 72 62 40 42 59 42 35 25 15
284 286 176 284 266 11 213 257 297 217 39 38 209 46 64 62 72 74 86 83 80 86 39 12 12 353 279 333 323 60 13 40 58 40 36 57 16 33 27 23 62 37 28 12 0